Location: Newark
(51.0000°N, 11.4100°E)
Time: 00:59:32
(UTC+00:00)

SO-50 - Visible Passes

Search period start: 10 December 2019 00:00
Search period end: 20 December 2019 00:00
Orbit: 594 x 692 km, 64.6° (Epoch: 09 December)

Date Brightness Start Highest point End Pass type
(mag) Time Alt. Az. Time Alt. Az. Time Alt. Az.
10 Dec ? 16:35:16 10° NNW 16:38:40 19° NNE 16:40:15 16° NE visible
10 Dec ? 18:15:43 10° NW 18:17:53 24° NNW 18:17:53 24° NNW visible
11 Dec ? 17:00:25 10° NNW 17:04:20 24° NNE 17:04:48 24° NNE visible
11 Dec ? 18:40:44 10° NW 18:42:26 22° NW 18:42:26 22° NW visible
12 Dec ? 15:44:49 10° NNW 15:48:02 17° N 15:51:13 10° NE visible
12 Dec ? 17:25:25 10° NNW 17:29:27 34° NNE 17:29:27 34° NNE visible
12 Dec ? 19:05:54 10° NW 19:07:05 17° NW 19:07:05 17° NW visible
13 Dec ? 16:10:04 10° NNW 16:13:45 21° NNE 16:16:31 13° ENE visible
13 Dec ? 17:50:25 10° NW 17:54:10 48° N 17:54:10 48° N visible
13 Dec ? 19:31:23 10° WNW 19:31:50 12° WNW 19:31:50 12° WNW visible
14 Dec ? 16:35:08 10° NNW 16:39:20 29° NNE 16:41:21 21° ENE visible
14 Dec ? 18:15:30 10° NW 18:19:02 48° WNW 18:19:02 48° WNW visible
15 Dec ? 17:00:07 10° NW 17:04:44 46° NE 17:06:22 33° E visible
15 Dec ? 18:40:49 10° NW 18:44:02 32° W 18:44:02 32° W visible
16 Dec ? 15:44:49 10° NNW 15:48:48 25° NNE 15:52:40 10° E visible
16 Dec ? 17:25:09 10° NW 17:29:56 83° NE 17:31:37 40° SE visible
16 Dec ? 19:06:40 10° WNW 19:09:17 17° WSW 19:09:17 17° WSW visible
17 Dec ? 16:09:49 10° NNW 16:14:16 37° NE 16:18:36 10° ESE visible
17 Dec ? 17:50:20 10° NW 17:54:55 50° WSW 17:57:11 26° S visible
18 Dec ? 16:34:49 10° NW 16:39:35 63° NE 16:44:09 10° SE visible
18 Dec ? 18:15:53 10° WNW 18:19:40 24° WSW 18:23:21 10° S visible
19 Dec ? 16:59:55 10° NW 17:04:39 69° SW 17:09:12 10° SSE visible
19 Dec ? 18:42:41 10° W 18:44:11 11° WSW 18:45:41 10° SW visible
